Location: Waco, TX
(31.5480°N, 97.1670°W)
Time: 22:55:01
(UTC-05:00)

ISS - Pass Details

Date: 17 April 2018
Orbit: 403 x 406 km, 51.6° (Epoch: 23 April)

Event Time Altitude Azimuth Distance (km) Brightness Sun altitude
Rises 11:44:07 0° 249° (WSW) 2,306 -0.2 58.1°
Reaches altitude 10° 11:46:25 10° 263° (W) 1,451 -1.1 58.5°
Maximum altitude 11:49:11 25° 321° (NW) 845 -2.2 59.0°
Drops below altitude 10° 11:51:59 10° 20° (NNE) 1,458 -1.0 59.5°
Sets 11:54:18 0° 34° (NE) 2,321 0.0 59.9°
